Regional Weather Roundup
Issued by NWS Burlington, VT

Home | Current Version | Previous Version | Text Only | Print | Product List | Glossary On
Versions: 1 2 3 4 5 6 7 8 9 10 11 12 13 14 15 16 17 18 19 20 21 22 23 24 25 26 27 28 29 30 31 32 33 34 35 36 37
000
ASUS41 KBTV 231710
RWRBTV
VERMONT REGIONAL WEATHER ROUNDUP
NATIONAL WEATHER SERVICE BURLINGTON VT
100 PM EDT THU OCT 23 2014

NOTE: "FAIR" INDICATES FEW OR NO CLOUDS BELOW 12,000 FEET WITH NO
SIGNIFICANT WEATHER AND/OR OBSTRUCTIONS TO VISIBILITY.

* THESE REPORTS ARE NOT UNDER NWS QUALITY CONTROL AND/OR DO NOT
  REPORT WEATHER SUCH AS PRECIPITATION AND FOG.

VTZ001>019-231800-
_____VERMONT_____


CITY           SKY/WX    TMP DP  RH WIND       PRES   REMARKS
BURLINGTON     LGT RAIN  45  41  86 N15G25    29.93F
MONTPELIER     HVY RAIN  43  41  93 N9        29.92F FOG
MORRISVILLE    RAIN      45  41  86 N9        29.93F
ST. JOHNSBURY*   N/A     47  46  97 MISG      29.86F
LYNDONVILLE*   MIX PCPN  46  42  85 NW6       29.89F
MIDDLEBURY*    RAIN      43  43 100 N12G24    29.89F
RUTLAND*       CLOUDY    43  41  93 N12G17    29.84F
SPRINGFIELD    LGT RAIN  48  44  86 N9G21     29.80F
HIGHGATE*      DRIZZLE   45  41  88 N8        29.97S
NEWPORT*       RAIN      43  42  95 N17       29.93F
BENNINGTON     CLOUDY    45  41  86 N6        29.78F
SUTTON*          N/A     45 N/A N/A MISG        N/A

_____LAKE CHAMPLAIN_____


CITY           SKY/WX    TMP DP  RH WIND       PRES   REMARKS
COLCHESTER RF*   N/A     45  45 100 N24         N/A
DIAMOND ISL*     N/A     45  41  87 NW23        N/A

$$

NYZ007-026>031-035-052-083-231800-
_____NORTHERN NEW YORK_____


CITY           SKY/WX    TMP DP  RH WIND       PRES   REMARKS
PLATTSBURGH    LGT RAIN  44  42  93 N17       29.97F
SARANAC LAKE   LGT RAIN  40  38  93 N6        29.94F FOG
MASSENA        CLOUDY    51  40  65 NE15      30.03F
OGDENSBURG*    CLOUDY    54  41  62 NE14      30.01F
POTSDAM*       CLOUDY    48  43  81 NE15G23   30.01F
WATERTOWN      PTSUNNY   55  38  52 N16G24    29.98F
FT DRUM        CLOUDY    51  37  60 NE17      29.97F
ALBANY         LGT RAIN  47  44  90 N8        29.82F FOG
GLENS FALLS    RAIN      46  43  89 N17       29.84F FOG

$$
NHZ002-005-011-231800-
_____NEW HAMPSHIRE_____


CITY           SKY/WX    TMP DP  RH WIND       PRES   REMARKS
LEBANON        LGT RAIN  49  46  90 N6        29.80F
KEENE          CLOUDY    48  41  76 N12       29.73F
MT WASHINGTON  FRZ RAIN  32  32 100 E64G74      N/A  VSB 1/16
PLYMOUTH       LGT RAIN  49  49 100 W5        29.80S
WHITEFIELD     RAIN      48  45  89 CALM      29.86S FOG

$$

_____REGIONAL QUEBEC LOCATIONS_____


CITY           SKY/WX    TMP DP  RH WIND       PRES   REMARKS
SHERBROOKE     RAIN      45  43  93 NE7       29.95F

_____REGIONAL ONTARIO LOCATIONS_____


CITY           SKY/WX    TMP DP  RH WIND       PRES   REMARKS
OTTAWA         PTSUNNY   55  41  58 NE16      30.05F

______KEY______
VSB  - VISIBILITY IN MILES
WCI  - WIND CHILL INDEX
HX   - HEAT INDEX
$$
NNNN



USA.gov is the U.S. government's official web portal to all federal, state and local government web resources and services.